Regional Weather Roundup
Issued by NWS

Home | Current Version | Previous Version | Text Only | Print | Product List | Glossary On
Versions: 1 2 3 4 5 6 7 8 9 10 11 12 13 14 15 16 17 18 19 20 21 22 23 24 25 26 27 28 29 30 31 32 33 34 35 36 37 38 39 40 41 42 43 44 45 46 47 48 49
000
ASUS45 KREV 032310
RWRNV
NEVADA REGIONAL WEATHER ROUNDUP
NATIONAL WEATHER SERVICE RENO NV
400 PM PDT WED JUN 03 2020

NOTE: "FAIR" INDICATES FEW OR NO CLOUDS BELOW 12,000 FEET WITH NO
SIGNIFICANT WEATHER AND/OR OBSTRUCTIONS TO VISIBILITY.

NVZ001-003-004-040000-
WESTERN NEVADA

CITY           SKY/WX    TMP DP  RH WIND       PRES   REMARKS
RENO           MOSUNNY   90  30  11 W17G24    30.07F
CARSON CITY    FAIR      88  27  11 W8G21     30.13F
MINDEN         FAIR      88  34  14 W20G28    30.12F
SLIDE MTN        N/A     61  34  36 W36         N/A
PYRAMID LAKE     N/A     93 N/A N/A W5          N/A
FALLON         MOSUNNY   96  25   8 W18G28    30.00F
LOVELOCK       SUNNY     96  28   9 SW16G24   29.99F
HAWTHORNE      SUNNY     91  25   9 W7G14     30.03F
$$

NVZ002-CAZ072-073-040000-
NORTHERN AND CENTRAL SIERRA

CITY           SKY/WX    TMP DP  RH WIND       PRES   REMARKS
S. LAKE TAHOE  SUNNY     78  34  20 S12G28    30.24F
TRUCKEE        SUNNY     81  34  18 W20G28    30.24F
SQUAW VLY 8000   N/A     64  32  29 SW13        N/A
BLUE CANYON    SUNNY     77  37  23 S9        30.23S
MAMMOTH LAKES  FAIR      79  27  14 S14G22    30.28F
BRIDGEPORT       N/A     79  32  18 W12         N/A
$$

NVZ030-031-036-040000-
NORTHERN NEVADA

CITY           SKY/WX    TMP DP  RH WIND       PRES   REMARKS
ELKO           SUNNY     90  28  11 W18G32    30.04F
WINNEMUCCA     SUNNY     94  19   6 SW16G28   30.01F
BATTLE MOUNTAI CLEAR     91  28  10 W12G28    30.02F
WENDOVER       MOSUNNY   90  36  14 W5        29.98F
$$

NVZ035-037-040000-
CENTRAL NEVADA

CITY           SKY/WX    TMP DP  RH WIND       PRES   REMARKS
ELY            SUNNY     83  23  11 NW10      30.13F
EUREKA           N/A     87  26  11 W8G20     30.10F
$$

NVZ013-014-040000-
SOUTH CENTRAL NEVADA

CITY           SKY/WX    TMP DP  RH WIND       PRES   REMARKS
TONOPAH        SUNNY     89  26  10 S9        30.10F
$$

NVZ017-020-022-040000-
SOUTHERN NEVADA

CITY           SKY/WX    TMP DP  RH WIND       PRES   REMARKS
LAS VEGAS      PTSUNNY  103  35   9 VRB3      29.84F
N. LAS VEGAS   PTSUNNY  104  33   8 E8        29.84F
NELLIS AFB     PTSUNNY  102  33   9 E3        29.81F
HENDERSON        N/A    N/A N/A N/A MISG        N/A
MERCURY        MOSUNNY   99  27   8 VRB3      29.92F
$$




USA.gov is the U.S. government's official web portal to all federal, state and local government web resources and services.